Time,TemperatureF,DewpointF,PressureIn,WindDirection,WindDirectionDegrees,WindSpeedMPH,WindSpeedGustMPH,Humidity,HourlyPrecipIn,Conditions,Clouds,dailyrainin,SoftwareType,DateUTC
2013-02-07 00:00:00,24.3,12.0,30.19,South,180,0.0,0.0,59,0.00,,,0.07,meteohub,2013-02-07 05:00:00,
2013-02-07 00:01:00,24.3,12.0,30.19,South,180,0.0,0.0,59,0.00,,,0.07,meteohub,2013-02-07 05:01:00,
2013-02-07 00:02:00,24.3,12.0,30.19,SSE,158,0.0,0.0,59,0.00,,,0.07,meteohub,2013-02-07 05:02:00,
2013-02-07 00:07:00,24.3,12.0,30.20,SW,225,0.0,0.0,59,0.00,,,0.00,meteohub,2013-02-07 05:07:00,
2013-02-07 00:12:00,24.3,12.0,30.20,South,180,0.0,0.0,59,0.00,,,0.00,meteohub,2013-02-07 05:12:00,
2013-02-07 00:18:00,24.3,12.0,30.20,South,180,0.0,0.0,59,0.00,,,0.00,meteohub,2013-02-07 05:18:00,
2013-02-07 00:23:00,24.3,12.0,30.21,SW,225,0.0,0.0,59,0.00,,,0.00,meteohub,2013-02-07 05:23:00,
2013-02-07 00:28:00,24.3,12.0,30.21,SW,225,0.0,0.0,59,0.00,,,0.00,meteohub,2013-02-07 05:28:00,
2013-02-07 00:33:00,24.3,12.0,30.21,South,180,0.0,0.0,59,0.00,,,0.00,meteohub,2013-02-07 05:33:00,
2013-02-07 00:38:00,24.3,12.0,30.22,South,180,0.0,0.0,59,0.00,,,0.00,meteohub,2013-02-07 05:38:00,
2013-02-07 00:43:00,24.4,12.6,30.21,South,180,0.0,0.0,60,0.00,,,0.00,meteohub,2013-02-07 05:43:00,
2013-02-07 00:48:00,24.4,12.6,30.21,East,90,0.0,0.0,60,0.00,,,0.00,meteohub,2013-02-07 05:48:00,
2013-02-07 00:54:00,24.4,12.6,30.22,NE,45,0.0,0.0,60,0.00,,,0.00,meteohub,2013-02-07 05:54:00,
2013-02-07 00:59:00,24.4,12.6,30.21,South,180,0.0,0.0,60,0.00,,,0.00,meteohub,2013-02-07 05:59:00,
2013-02-07 01:04:00,24.4,12.6,30.21,SW,225,0.0,0.0,60,0.00,,,0.00,meteohub,2013-02-07 06:04:00,
2013-02-07 01:09:00,24.4,12.6,30.21,South,180,1.0,0.0,60,0.00,,,0.00,meteohub,2013-02-07 06:09:00,
2013-02-07 01:14:00,24.4,12.9,30.20,East,90,1.0,0.0,61,0.00,,,0.00,meteohub,2013-02-07 06:14:00,
2013-02-07 01:19:00,24.4,12.6,30.20,East,90,0.0,1.0,60,0.00,,,0.00,meteohub,2013-02-07 06:19:00,
2013-02-07 01:24:00,24.4,12.6,30.20,North,0,0.0,2.0,60,0.00,,,0.00,meteohub,2013-02-07 06:24:00,
2013-02-07 01:30:00,24.4,12.6,30.20,North,0,0.0,2.0,60,0.00,,,0.00,meteohub,2013-02-07 06:30:00,
2013-02-07 01:35:00,24.6,12.7,30.19,NW,315,0.0,2.0,60,0.00,,,0.00,meteohub,2013-02-07 06:35:00,
2013-02-07 01:40:00,24.6,12.7,30.20,NE,45,0.0,1.0,60,0.00,,,0.00,meteohub,2013-02-07 06:40:00,
2013-02-07 01:45:00,24.6,12.7,30.20,South,180,0.0,1.0,60,0.00,,,0.00,meteohub,2013-02-07 06:45:00,
2013-02-07 01:50:00,24.6,12.7,30.20,SE,135,0.0,1.0,60,0.00,,,0.00,meteohub,2013-02-07 06:50:00,
2013-02-07 01:56:00,24.8,12.9,30.19,SSE,158,1.0,1.0,60,0.00,,,0.00,meteohub,2013-02-07 06:56:00,
2013-02-07 02:01:00,24.8,12.9,30.19,East,90,1.0,2.0,60,0.00,,,0.00,meteohub,2013-02-07 07:01:00,
2013-02-07 02:06:00,25.0,13.1,30.19,East,90,0.0,2.0,60,0.00,,,0.00,meteohub,2013-02-07 07:06:00,
2013-02-07 02:11:00,25.0,13.1,30.20,NE,45,2.0,2.0,60,0.00,,,0.00,meteohub,2013-02-07 07:11:00,
2013-02-07 02:16:00,25.0,13.1,30.19,North,0,2.0,3.0,60,0.00,,,0.00,meteohub,2013-02-07 07:16:00,
2013-02-07 02:22:00,25.0,13.1,30.19,West,270,0.0,4.0,60,0.00,,,0.00,meteohub,2013-02-07 07:22:00,
2013-02-07 02:27:00,25.0,13.5,30.19,NE,45,0.0,4.0,61,0.00,,,0.00,meteohub,2013-02-07 07:27:00,
2013-02-07 02:32:00,25.0,13.5,30.18,North,0,4.0,4.0,61,0.00,,,0.00,meteohub,2013-02-07 07:32:00,
2013-02-07 02:37:00,25.0,13.8,30.18,South,180,3.0,4.0,62,0.00,,,0.00,meteohub,2013-02-07 07:37:00,
2013-02-07 02:42:00,25.0,13.8,30.19,SW,225,4.0,4.0,62,0.00,,,0.00,meteohub,2013-02-07 07:42:00,
2013-02-07 02:47:00,25.0,13.8,30.19,NE,45,2.0,4.0,62,0.00,,,0.00,meteohub,2013-02-07 07:47:00,
2013-02-07 02:52:00,25.0,13.8,30.18,East,90,0.0,4.0,62,0.00,,,0.00,meteohub,2013-02-07 07:52:00,
2013-02-07 02:57:00,25.0,13.8,30.18,East,90,1.0,4.0,62,0.00,,,0.00,meteohub,2013-02-07 07:57:00,
2013-02-07 03:02:00,25.0,13.8,30.19,West,270,0.0,3.0,62,0.00,,,0.00,meteohub,2013-02-07 08:02:00,
2013-02-07 03:07:00,25.0,13.8,30.20,West,270,0.0,3.0,62,0.00,,,0.00,meteohub,2013-02-07 08:07:00,
2013-02-07 03:12:00,25.0,14.2,30.20,East,90,0.0,2.0,63,0.00,,,0.00,meteohub,2013-02-07 08:12:00,
2013-02-07 03:17:00,25.0,14.2,30.20,West,270,0.0,2.0,63,0.00,,,0.00,meteohub,2013-02-07 08:17:00,
2013-02-07 03:22:00,25.2,14.4,30.20,NE,45,0.0,2.0,63,0.00,,,0.00,meteohub,2013-02-07 08:22:00,
2013-02-07 03:27:00,25.2,14.7,30.20,SW,225,0.0,2.0,64,0.00,,,0.00,meteohub,2013-02-07 08:27:00,
2013-02-07 03:32:00,25.2,14.7,30.20,SW,225,0.0,0.0,64,0.00,,,0.00,meteohub,2013-02-07 08:32:00,
2013-02-07 03:37:00,25.2,14.7,30.20,East,90,0.0,0.0,64,0.00,,,0.00,meteohub,2013-02-07 08:37:00,
2013-02-07 03:42:00,25.2,14.7,30.20,South,180,1.0,1.0,64,0.00,,,0.00,meteohub,2013-02-07 08:42:00,
2013-02-07 03:47:00,25.2,14.7,30.20,East,90,0.0,1.0,64,0.00,,,0.00,meteohub,2013-02-07 08:47:00,
2013-02-07 03:52:00,25.3,14.9,30.20,East,90,0.0,1.0,64,0.00,,,0.00,meteohub,2013-02-07 08:52:00,
2013-02-07 03:57:00,25.2,14.7,30.19,East,90,0.0,1.0,64,0.00,,,0.00,meteohub,2013-02-07 08:57:00,
2013-02-07 04:02:00,25.2,14.7,30.20,East,90,0.0,1.0,64,0.00,,,0.00,meteohub,2013-02-07 09:02:00,
2013-02-07 04:07:00,25.2,15.1,30.19,East,90,0.0,1.0,65,0.00,,,0.00,meteohub,2013-02-07 09:07:00,
2013-02-07 04:12:00,25.2,15.1,30.19,NE,45,1.0,1.0,65,0.00,,,0.00,meteohub,2013-02-07 09:12:00,
2013-02-07 04:17:00,25.2,15.1,30.19,NE,45,2.0,2.0,65,0.00,,,0.00,meteohub,2013-02-07 09:17:00,
2013-02-07 04:22:00,25.2,15.1,30.18,East,90,2.0,2.0,65,0.00,,,0.00,meteohub,2013-02-07 09:22:00,
2013-02-07 04:27:00,25.2,15.1,30.18,East,90,0.0,2.0,65,0.00,,,0.00,meteohub,2013-02-07 09:27:00,
2013-02-07 04:32:00,25.2,15.1,30.18,East,90,1.0,2.0,65,0.00,,,0.00,meteohub,2013-02-07 09:32:00,
2013-02-07 04:37:00,25.2,15.1,30.18,NW,315,0.0,2.0,65,0.00,,,0.00,meteohub,2013-02-07 09:37:00,
2013-02-07 04:42:00,25.2,15.1,30.17,East,90,2.0,2.0,65,0.00,,,0.00,meteohub,2013-02-07 09:42:00,
2013-02-07 04:47:00,25.2,15.1,30.17,SE,135,3.0,3.0,65,0.00,,,0.00,meteohub,2013-02-07 09:47:00,
2013-02-07 04:52:00,25.2,15.1,30.17,NW,315,2.0,3.0,65,0.00,,,0.00,meteohub,2013-02-07 09:52:00,
2013-02-07 04:57:00,25.2,15.1,30.16,East,90,2.0,4.0,65,0.00,,,0.00,meteohub,2013-02-07 09:57:00,
2013-02-07 05:02:00,25.3,15.3,30.16,South,180,2.0,4.0,65,0.00,,,0.00,meteohub,2013-02-07 10:02:00,
2013-02-07 05:07:00,25.3,15.3,30.16,NE,45,3.0,5.0,65,0.00,,,0.00,meteohub,2013-02-07 10:07:00,
2013-02-07 05:12:00,25.3,14.9,30.16,NW,315,1.0,5.0,64,0.00,,,0.00,meteohub,2013-02-07 10:12:00,
2013-02-07 05:17:00,25.3,14.9,30.16,NE,45,2.0,5.0,64,0.00,,,0.00,meteohub,2013-02-07 10:17:00,
2013-02-07 05:22:00,25.5,15.1,30.17,WSW,248,2.0,4.0,64,0.00,,,0.00,meteohub,2013-02-07 10:22:00,
2013-02-07 05:28:00,25.5,15.1,30.17,West,270,1.0,3.0,64,0.00,,,0.00,meteohub,2013-02-07 10:28:00,
2013-02-07 05:33:00,25.5,14.7,30.17,SW,225,0.0,3.0,63,0.00,,,0.00,meteohub,2013-02-07 10:33:00,
2013-02-07 05:38:00,25.5,14.7,30.17,SW,225,2.0,3.0,63,0.00,,,0.00,meteohub,2013-02-07 10:38:00,
2013-02-07 05:43:00,25.5,14.7,30.17,West,270,2.0,2.0,63,0.00,,,0.00,meteohub,2013-02-07 10:43:00,
2013-02-07 05:48:00,25.5,14.7,30.17,SW,225,2.0,2.0,63,0.00,,,0.00,meteohub,2013-02-07 10:48:00,
2013-02-07 05:53:00,25.5,14.7,30.17,NE,45,0.0,2.0,63,0.00,,,0.00,meteohub,2013-02-07 10:53:00,
2013-02-07 05:58:00,25.5,14.7,30.16,West,270,1.0,4.0,63,0.00,,,0.00,meteohub,2013-02-07 10:58:00,
2013-02-07 06:04:00,25.5,14.7,30.16,SE,135,2.0,4.0,63,0.00,,,0.00,meteohub,2013-02-07 11:04:00,
2013-02-07 06:09:00,25.5,14.7,30.16,SW,225,2.0,4.0,63,0.00,,,0.00,meteohub,2013-02-07 11:09:00,
2013-02-07 06:14:00,25.5,14.7,30.15,SE,135,1.0,3.0,63,0.00,,,0.00,meteohub,2013-02-07 11:14:00,
2013-02-07 06:19:00,25.5,14.7,30.16,North,0,3.0,3.0,63,0.00,,,0.00,meteohub,2013-02-07 11:19:00,
2013-02-07 06:24:00,25.5,14.7,30.16,NNE,23,4.0,4.0,63,0.00,,,0.00,meteohub,2013-02-07 11:24:00,
2013-02-07 06:29:00,25.5,14.7,30.16,East,90,2.0,3.0,63,0.00,,,0.00,meteohub,2013-02-07 11:29:00,
2013-02-07 06:35:00,25.5,14.7,30.16,North,0,3.0,5.0,63,0.00,,,0.00,meteohub,2013-02-07 11:35:00,
2013-02-07 06:40:00,25.5,14.7,30.16,SE,135,1.0,5.0,63,0.00,,,0.00,meteohub,2013-02-07 11:40:00,
2013-02-07 06:45:00,25.5,14.7,30.16,SW,225,0.0,3.0,63,0.00,,,0.00,meteohub,2013-02-07 11:45:00,
2013-02-07 06:50:00,25.5,14.7,30.16,NW,315,0.0,3.0,63,0.00,,,0.00,meteohub,2013-02-07 11:50:00,
2013-02-07 06:55:00,25.5,14.7,30.15,South,180,3.0,3.0,63,0.00,,,0.00,meteohub,2013-02-07 11:55:00,
2013-02-07 07:01:00,25.5,14.7,30.15,South,180,0.0,3.0,63,0.00,,,0.00,meteohub,2013-02-07 12:01:00,
2013-02-07 07:06:00,25.5,14.7,30.15,East,90,1.0,3.0,63,0.00,,,0.00,meteohub,2013-02-07 12:06:00,
2013-02-07 07:11:00,25.5,14.7,30.15,NE,45,0.0,3.0,63,0.00,,,0.00,meteohub,2013-02-07 12:11:00,
2013-02-07 07:16:00,25.5,14.7,30.15,NE,45,0.0,2.0,63,0.00,,,0.00,meteohub,2013-02-07 12:16:00,
2013-02-07 07:21:00,25.5,14.7,30.15,NE,45,0.0,2.0,63,0.00,,,0.00,meteohub,2013-02-07 12:21:00,
2013-02-07 07:26:00,25.5,14.7,30.14,NE,45,2.0,2.0,63,0.00,,,0.00,meteohub,2013-02-07 12:26:00,
2013-02-07 07:31:00,25.7,15.3,30.14,NE,45,1.0,2.0,64,0.00,,,0.00,meteohub,2013-02-07 12:31:00,
2013-02-07 07:37:00,25.9,15.4,30.14,SW,225,2.0,2.0,64,0.00,,,0.00,meteohub,2013-02-07 12:37:00,
2013-02-07 07:42:00,25.9,15.1,30.15,SW,225,1.0,2.0,63,0.00,,,0.00,meteohub,2013-02-07 12:42:00,
2013-02-07 07:47:00,26.1,15.3,30.15,NE,45,1.0,2.0,63,0.00,,,0.00,meteohub,2013-02-07 12:47:00,
2013-02-07 07:52:00,26.1,15.3,30.15,SE,135,0.0,2.0,63,0.00,,,0.00,meteohub,2013-02-07 12:52:00,
2013-02-07 07:57:00,26.2,15.4,30.15,NW,315,0.0,2.0,63,0.00,,,0.00,meteohub,2013-02-07 12:57:00,
2013-02-07 08:02:00,26.4,15.6,30.14,East,90,1.0,2.0,63,0.00,,,0.00,meteohub,2013-02-07 13:02:00,
2013-02-07 08:07:00,26.4,15.6,30.14,North,0,0.0,2.0,63,0.00,,,0.00,meteohub,2013-02-07 13:07:00,
2013-02-07 08:12:00,26.6,15.3,30.14,North,0,0.0,2.0,62,0.00,,,0.00,meteohub,2013-02-07 13:12:00,
2013-02-07 08:17:00,26.8,15.4,30.14,SW,225,0.0,2.0,62,0.00,,,0.00,meteohub,2013-02-07 13:17:00,
2013-02-07 08:22:00,27.0,15.6,30.15,SW,225,0.0,2.0,62,0.00,,,0.00,meteohub,2013-02-07 13:22:00,
2013-02-07 08:27:00,27.1,15.8,30.14,NW,315,0.0,0.0,62,0.00,,,0.00,meteohub,2013-02-07 13:27:00,
2013-02-07 08:32:00,27.1,15.4,30.14,South,180,0.0,0.0,61,0.00,,,0.00,meteohub,2013-02-07 13:32:00,
2013-02-07 08:37:00,27.3,15.6,30.15,North,0,2.0,2.0,61,0.00,,,0.00,meteohub,2013-02-07 13:37:00,
2013-02-07 08:42:00,27.5,15.8,30.15,SW,225,1.0,2.0,61,0.00,,,0.00,meteohub,2013-02-07 13:42:00,
2013-02-07 08:47:00,27.7,16.3,30.14,South,180,0.0,2.0,62,0.00,,,0.00,meteohub,2013-02-07 13:47:00,
2013-02-07 08:52:00,27.9,16.5,30.14,NW,315,1.0,2.0,62,0.00,,,0.00,meteohub,2013-02-07 13:52:00,
2013-02-07 08:57:00,28.0,16.7,30.14,North,0,0.0,2.0,62,0.00,,,0.00,meteohub,2013-02-07 13:57:00,
2013-02-07 09:02:00,28.0,16.7,30.14,NE,45,0.0,2.0,62,0.00,,,0.00,meteohub,2013-02-07 14:02:00,
2013-02-07 09:07:00,28.0,16.7,30.14,NE,45,0.0,2.0,62,0.00,,,0.00,meteohub,2013-02-07 14:07:00,
2013-02-07 09:12:00,28.4,18.5,30.14,NE,45,1.0,3.0,66,0.00,,,0.00,meteohub,2013-02-07 14:12:00,
2013-02-07 09:17:00,28.6,18.7,30.14,South,180,2.0,3.0,66,0.00,,,0.00,meteohub,2013-02-07 14:17:00,
2013-02-07 09:22:00,28.6,18.7,30.13,West,270,2.0,3.0,66,0.00,,,0.00,meteohub,2013-02-07 14:22:00,
2013-02-07 09:27:00,28.6,18.7,30.14,NE,45,2.0,4.0,66,0.00,,,0.00,meteohub,2013-02-07 14:27:00,
2013-02-07 09:32:00,28.8,18.9,30.14,East,90,2.0,4.0,66,0.00,,,0.00,meteohub,2013-02-07 14:32:00,
2013-02-07 09:37:00,28.9,19.0,30.13,North,0,2.0,4.0,66,0.00,,,0.00,meteohub,2013-02-07 14:37:00,
2013-02-07 09:43:00,29.1,19.2,30.13,East,90,3.0,3.0,66,0.00,,,0.00,meteohub,2013-02-07 14:43:00,
2013-02-07 09:48:00,29.5,19.6,30.13,WSW,248,0.0,3.0,66,0.00,,,0.00,meteohub,2013-02-07 14:48:00,
2013-02-07 09:53:00,29.8,19.9,30.12,East,90,2.0,3.0,66,0.00,,,0.00,meteohub,2013-02-07 14:53:00,
2013-02-07 09:58:00,29.8,19.9,30.13,SW,225,0.0,3.0,66,0.00,,,0.00,meteohub,2013-02-07 14:58:00,
2013-02-07 10:03:00,30.2,19.9,30.12,NE,45,2.0,3.0,65,0.00,,,0.00,meteohub,2013-02-07 15:03:00,
2013-02-07 10:08:00,30.2,19.9,30.12,South,180,1.0,3.0,65,0.00,,,0.00,meteohub,2013-02-07 15:08:00,
2013-02-07 10:13:00,30.4,19.9,30.12,East,90,2.0,2.0,65,0.00,,,0.00,meteohub,2013-02-07 15:13:00,
2013-02-07 10:18:00,30.6,20.1,30.12,East,90,3.0,3.0,65,0.00,,,0.00,meteohub,2013-02-07 15:18:00,
2013-02-07 10:24:00,30.7,20.3,30.11,NE,45,0.0,2.0,65,0.00,,,0.00,meteohub,2013-02-07 15:24:00,
2013-02-07 10:29:00,30.9,20.5,30.11,NE,45,4.0,4.0,65,0.00,,,0.00,meteohub,2013-02-07 15:29:00,
2013-02-07 10:34:00,31.1,20.7,30.12,East,90,0.0,4.0,65,0.00,,,0.00,meteohub,2013-02-07 15:34:00,
2013-02-07 10:39:00,31.5,21.0,30.12,NE,45,1.0,4.0,65,0.00,,,0.00,meteohub,2013-02-07 15:39:00,
2013-02-07 10:44:00,31.8,21.4,30.12,NE,45,2.0,4.0,65,0.00,,,0.00,meteohub,2013-02-07 15:44:00,
2013-02-07 10:49:00,32.2,21.4,30.11,East,90,2.0,2.0,64,0.00,,,0.00,meteohub,2013-02-07 15:49:00,
2013-02-07 10:54:00,32.4,21.2,30.11,East,90,2.0,3.0,63,0.00,,,0.00,meteohub,2013-02-07 15:54:00,
2013-02-07 11:00:00,32.5,21.4,30.11,NE,45,0.0,4.0,63,0.00,,,0.00,meteohub,2013-02-07 16:00:00,
2013-02-07 11:05:00,32.5,21.4,30.11,NE,45,0.0,4.0,63,0.00,,,0.00,meteohub,2013-02-07 16:05:00,
2013-02-07 11:10:00,33.1,21.9,30.11,ESE,113,3.0,3.0,63,0.00,,,0.00,meteohub,2013-02-07 16:10:00,
2013-02-07 11:15:00,33.1,21.9,30.11,NE,45,2.0,4.0,63,0.00,,,0.00,meteohub,2013-02-07 16:15:00,
2013-02-07 11:20:00,33.3,22.1,30.11,East,90,2.0,4.0,63,0.00,,,0.00,meteohub,2013-02-07 16:20:00,
2013-02-07 11:25:00,33.4,21.7,30.11,NE,45,2.0,4.0,62,0.00,,,0.00,meteohub,2013-02-07 16:25:00,
2013-02-07 11:30:00,33.6,21.9,30.11,ENE,68,2.0,4.0,62,0.00,,,0.00,meteohub,2013-02-07 16:30:00,
2013-02-07 11:35:00,33.8,21.7,30.11,East,90,2.0,4.0,61,0.00,,,0.00,meteohub,2013-02-07 16:35:00,
2013-02-07 11:40:00,34.0,21.9,30.11,NW,315,2.0,4.0,61,0.00,,,0.00,meteohub,2013-02-07 16:40:00,
2013-02-07 11:45:00,34.0,21.9,30.11,NE,45,1.0,3.0,61,0.00,,,0.00,meteohub,2013-02-07 16:45:00,
2013-02-07 11:51:00,34.3,22.3,30.11,East,90,2.0,3.0,61,0.00,,,0.00,meteohub,2013-02-07 16:51:00,
2013-02-07 11:56:00,34.5,22.5,30.10,East,90,2.0,3.0,61,0.00,,,0.00,meteohub,2013-02-07 16:56:00,
2013-02-07 12:01:00,34.5,22.1,30.10,ENE,68,4.0,4.0,60,0.00,,,0.00,meteohub,2013-02-07 17:01:00,
2013-02-07 12:06:00,34.5,22.1,30.09,SE,135,2.0,4.0,60,0.00,,,0.00,meteohub,2013-02-07 17:06:00,
2013-02-07 12:11:00,34.9,22.5,30.09,NE,45,4.0,4.0,60,0.00,,,0.00,meteohub,2013-02-07 17:11:00,
2013-02-07 12:16:00,35.1,22.6,30.09,NE,45,4.0,4.0,60,0.00,,,0.00,meteohub,2013-02-07 17:16:00,
2013-02-07 12:21:00,35.4,23.0,30.08,NE,45,3.0,4.0,60,0.00,,,0.00,meteohub,2013-02-07 17:21:00,
2013-02-07 12:26:00,35.8,22.5,30.07,East,90,2.0,4.0,58,0.01,,,0.01,meteohub,2013-02-07 17:26:00,
2013-02-07 12:32:00,36.0,22.6,30.07,East,90,2.0,4.0,58,0.01,,,0.01,meteohub,2013-02-07 17:32:00,
2013-02-07 12:37:00,35.8,22.1,30.07,East,90,3.0,4.0,57,0.01,,,0.01,meteohub,2013-02-07 17:37:00,
2013-02-07 12:42:00,36.0,22.6,30.07,SE,135,1.0,4.0,58,0.01,,,0.01,meteohub,2013-02-07 17:42:00,
2013-02-07 12:47:00,36.3,23.0,30.06,South,180,1.0,4.0,58,0.01,,,0.01,meteohub,2013-02-07 17:47:00,
2013-02-07 12:52:00,36.7,23.4,30.06,North,0,2.0,3.0,58,0.01,,,0.01,meteohub,2013-02-07 17:52:00,
2013-02-07 12:57:00,37.2,23.7,30.06,NE,45,2.0,3.0,58,0.01,,,0.01,meteohub,2013-02-07 17:57:00,
2013-02-07 13:02:00,37.8,25.5,30.06,NE,45,2.0,4.0,61,0.01,,,0.01,meteohub,2013-02-07 18:02:00,
2013-02-07 13:07:00,37.8,25.2,30.05,NE,45,4.0,4.0,60,0.01,,,0.01,meteohub,2013-02-07 18:07:00,
2013-02-07 13:12:00,37.4,24.8,30.04,East,90,2.0,4.0,60,0.01,,,0.01,meteohub,2013-02-07 18:12:00,
2013-02-07 13:17:00,37.6,25.3,30.04,East,90,3.0,4.0,61,0.01,,,0.01,meteohub,2013-02-07 18:17:00,
2013-02-07 13:22:00,37.9,25.3,30.05,South,180,6.0,6.0,60,0.00,,,0.01,meteohub,2013-02-07 18:22:00,
2013-02-07 13:27:00,38.3,25.7,30.05,SE,135,4.0,6.0,60,0.00,,,0.01,meteohub,2013-02-07 18:27:00,
2013-02-07 13:32:00,39.0,26.2,30.04,South,180,3.0,6.0,60,0.00,,,0.01,meteohub,2013-02-07 18:32:00,
2013-02-07 13:37:00,39.2,25.7,30.04,NW,315,4.0,6.0,58,0.00,,,0.01,meteohub,2013-02-07 18:37:00,
2013-02-07 13:42:00,38.8,25.7,30.04,East,90,4.0,4.0,59,0.01,,,0.02,meteohub,2013-02-07 18:42:00,
2013-02-07 13:47:00,38.3,25.2,30.03,SE,135,4.0,5.0,59,0.01,,,0.02,meteohub,2013-02-07 18:47:00,
2013-02-07 13:52:00,37.9,25.0,30.03,NW,315,3.0,5.0,59,0.01,,,0.02,meteohub,2013-02-07 18:52:00,
2013-02-07 13:57:00,37.8,25.2,30.03,East,90,5.0,5.0,60,0.01,,,0.02,meteohub,2013-02-07 18:57:00,
2013-02-07 14:02:00,37.8,25.2,30.02,SE,135,3.0,5.0,60,0.01,,,0.02,meteohub,2013-02-07 19:02:00,
2013-02-07 14:07:00,37.9,25.3,30.02,East,90,3.0,5.0,60,0.01,,,0.02,meteohub,2013-02-07 19:07:00,
2013-02-07 14:12:00,38.3,25.7,30.02,NE,45,2.0,5.0,60,0.01,,,0.02,meteohub,2013-02-07 19:12:00,
2013-02-07 14:17:00,38.8,26.1,30.01,NE,45,4.0,4.0,60,0.01,,,0.02,meteohub,2013-02-07 19:17:00,
2013-02-07 14:22:00,38.8,26.1,30.01,North,0,3.0,4.0,60,0.01,,,0.02,meteohub,2013-02-07 19:22:00,
2013-02-07 14:27:00,38.8,25.7,30.01,SE,135,3.0,5.0,59,0.01,,,0.02,meteohub,2013-02-07 19:27:00,
2013-02-07 14:32:00,39.0,25.9,30.00,East,90,3.0,5.0,59,0.01,,,0.02,meteohub,2013-02-07 19:32:00,
2013-02-07 14:37:00,39.0,25.9,30.00,NE,45,3.0,5.0,59,0.00,,,0.02,meteohub,2013-02-07 19:37:00,
2013-02-07 14:42:00,39.2,25.7,29.99,East,90,2.0,7.0,58,0.01,,,0.04,meteohub,2013-02-07 19:42:00,
2013-02-07 14:47:00,39.2,26.1,29.99,NE,45,3.0,7.0,59,0.01,,,0.04,meteohub,2013-02-07 19:47:00,
2013-02-07 14:53:00,39.2,25.7,29.99,SE,135,4.0,7.0,58,0.01,,,0.04,meteohub,2013-02-07 19:53:00,
2013-02-07 14:58:00,39.4,25.9,29.99,SW,225,3.0,4.0,58,0.01,,,0.04,meteohub,2013-02-07 19:58:00,
2013-02-07 15:03:00,39.2,25.7,29.99,ENE,68,3.0,4.0,58,0.01,,,0.04,meteohub,2013-02-07 20:03:00,
2013-02-07 15:08:00,39.0,25.9,29.99,East,90,3.0,4.0,59,0.01,,,0.04,meteohub,2013-02-07 20:08:00,
2013-02-07 15:13:00,39.0,25.9,29.98,SE,135,2.0,4.0,59,0.01,,,0.04,meteohub,2013-02-07 20:13:00,
2013-02-07 15:18:00,39.2,26.1,29.98,North,0,2.0,4.0,59,0.01,,,0.04,meteohub,2013-02-07 20:18:00,
2013-02-07 15:23:00,39.2,26.1,29.98,East,90,2.0,4.0,59,0.01,,,0.04,meteohub,2013-02-07 20:23:00,
2013-02-07 15:28:00,39.2,26.1,29.97,East,90,2.0,4.0,59,0.01,,,0.04,meteohub,2013-02-07 20:28:00,
2013-02-07 15:33:00,39.4,26.2,29.97,NE,45,2.0,3.0,59,0.01,,,0.04,meteohub,2013-02-07 20:33:00,
2013-02-07 15:39:00,39.6,26.4,29.96,East,90,4.0,4.0,59,0.01,,,0.04,meteohub,2013-02-07 20:39:00,
2013-02-07 15:44:00,39.4,26.2,29.96,NE,45,4.0,4.0,59,0.00,,,0.04,meteohub,2013-02-07 20:44:00,
2013-02-07 15:49:00,39.6,26.4,29.96,East,90,4.0,4.0,59,0.00,,,0.04,meteohub,2013-02-07 20:49:00,
2013-02-07 15:54:00,39.4,26.2,29.96,NE,45,3.0,4.0,59,0.00,,,0.04,meteohub,2013-02-07 20:54:00,
2013-02-07 15:59:00,39.4,26.2,29.96,East,90,4.0,4.0,59,0.00,,,0.04,meteohub,2013-02-07 20:59:00,
2013-02-07 16:04:00,39.2,26.1,29.96,East,90,2.0,4.0,59,0.00,,,0.04,meteohub,2013-02-07 21:04:00,
2013-02-07 16:09:00,39.2,26.1,29.96,NE,45,3.0,4.0,59,0.00,,,0.04,meteohub,2013-02-07 21:09:00,
2013-02-07 16:15:00,39.0,26.2,29.95,SE,135,2.0,4.0,60,0.01,,,0.05,meteohub,2013-02-07 21:15:00,
2013-02-07 16:20:00,38.7,26.4,29.95,East,90,3.0,4.0,61,0.01,,,0.05,meteohub,2013-02-07 21:20:00,
2013-02-07 16:25:00,38.7,26.4,29.95,North,0,4.0,4.0,61,0.01,,,0.05,meteohub,2013-02-07 21:25:00,
2013-02-07 16:30:00,38.7,26.4,29.95,North,0,2.0,4.0,61,0.01,,,0.05,meteohub,2013-02-07 21:30:00,
2013-02-07 16:35:00,38.7,26.8,29.94,East,90,4.0,4.0,62,0.01,,,0.05,meteohub,2013-02-07 21:35:00,
2013-02-07 16:40:00,38.3,26.1,29.94,NE,45,3.0,5.0,61,0.01,,,0.05,meteohub,2013-02-07 21:40:00,
2013-02-07 16:46:00,38.1,26.2,29.94,NE,45,2.0,5.0,62,0.01,,,0.05,meteohub,2013-02-07 21:46:00,
2013-02-07 16:51:00,37.9,26.1,29.94,East,90,2.0,5.0,62,0.01,,,0.05,meteohub,2013-02-07 21:51:00,
2013-02-07 16:56:00,37.8,26.2,29.94,East,90,2.0,4.0,63,0.01,,,0.05,meteohub,2013-02-07 21:56:00,
2013-02-07 17:01:00,37.4,25.9,29.94,East,90,4.0,4.0,63,0.01,,,0.05,meteohub,2013-02-07 22:01:00,
2013-02-07 17:06:00,37.0,24.1,29.93,East,90,4.0,5.0,59,0.01,,,0.05,meteohub,2013-02-07 22:06:00,
2013-02-07 17:11:00,36.7,24.1,29.93,East,90,2.0,5.0,60,0.00,,,0.05,meteohub,2013-02-07 22:11:00,
2013-02-07 17:16:00,36.3,24.1,29.94,NE,45,6.0,6.0,61,0.00,,,0.05,meteohub,2013-02-07 22:16:00,
2013-02-07 17:22:00,36.1,24.1,29.94,West,270,2.0,6.0,61,0.00,,,0.05,meteohub,2013-02-07 22:22:00,
2013-02-07 17:27:00,36.0,23.9,29.94,NE,45,3.0,6.0,61,0.00,,,0.05,meteohub,2013-02-07 22:27:00,
2013-02-07 17:32:00,36.0,23.9,29.94,East,90,2.0,6.0,61,0.00,,,0.05,meteohub,2013-02-07 22:32:00,
2013-02-07 17:37:00,35.6,23.5,29.93,NE,45,2.0,4.0,61,0.00,,,0.05,meteohub,2013-02-07 22:37:00,
2013-02-07 17:42:00,35.4,23.7,29.93,East,90,6.0,6.0,62,0.00,,,0.05,meteohub,2013-02-07 22:42:00,
2013-02-07 17:47:00,35.1,23.4,29.94,East,90,2.0,6.0,62,0.00,,,0.05,meteohub,2013-02-07 22:47:00,
2013-02-07 17:52:00,34.7,23.4,29.94,NE,45,3.0,6.0,63,0.00,,,0.05,meteohub,2013-02-07 22:52:00,
2013-02-07 17:57:00,34.5,23.2,29.94,East,90,4.0,6.0,63,0.00,,,0.05,meteohub,2013-02-07 22:57:00,
2013-02-07 18:02:00,34.2,22.8,29.94,East,90,3.0,6.0,63,0.00,,,0.05,meteohub,2013-02-07 23:02:00,
2013-02-07 18:08:00,34.0,22.6,29.94,NE,45,3.0,6.0,63,0.00,,,0.05,meteohub,2013-02-07 23:08:00,
2013-02-07 18:13:00,33.8,22.5,29.94,NE,45,3.0,6.0,63,0.00,,,0.05,meteohub,2013-02-07 23:13:00,
2013-02-07 18:18:00,33.6,23.2,29.93,ESE,113,4.0,4.0,65,0.00,,,0.05,meteohub,2013-02-07 23:18:00,
2013-02-07 18:23:00,33.4,23.0,29.93,South,180,5.0,5.0,65,0.00,,,0.05,meteohub,2013-02-07 23:23:00,
2013-02-07 18:28:00,33.3,22.8,29.93,NE,45,3.0,4.0,65,0.00,,,0.05,meteohub,2013-02-07 23:28:00,
2013-02-07 18:33:00,33.3,22.8,29.94,ESE,113,4.0,6.0,65,0.00,,,0.05,meteohub,2013-02-07 23:33:00,
2013-02-07 18:38:00,33.1,22.6,29.93,South,180,5.0,6.0,65,0.00,,,0.05,meteohub,2013-02-07 23:38:00,
2013-02-07 18:43:00,32.9,22.5,29.91,North,0,4.0,5.0,65,0.00,,,0.05,meteohub,2013-02-07 23:43:00,
2013-02-07 18:49:00,32.7,22.3,29.92,NE,45,3.0,6.0,65,0.00,,,0.05,meteohub,2013-02-07 23:49:00,
2013-02-07 18:54:00,32.7,22.6,29.92,East,90,5.0,6.0,66,0.00,,,0.05,meteohub,2013-02-07 23:54:00,
2013-02-07 18:59:00,32.5,22.5,29.92,North,0,4.0,5.0,66,0.00,,,0.05,meteohub,2013-02-07 23:59:00,
2013-02-07 19:04:00,32.5,22.5,29.93,SW,225,2.0,5.0,66,0.00,,,0.05,meteohub,2013-02-08 00:04:00,
2013-02-07 19:09:00,32.4,22.3,29.92,East,90,3.0,5.0,66,0.00,,,0.05,meteohub,2013-02-08 00:09:00,
2013-02-07 19:14:00,32.2,22.1,29.91,NE,45,4.0,5.0,66,0.00,,,0.05,meteohub,2013-02-08 00:14:00,
2013-02-07 19:19:00,32.2,22.1,29.91,South,180,3.0,6.0,66,0.00,,,0.05,meteohub,2013-02-08 00:19:00,
2013-02-07 19:24:00,32.0,21.9,29.91,SW,225,4.0,6.0,66,0.00,,,0.05,meteohub,2013-02-08 00:24:00,
2013-02-07 19:30:00,32.0,21.9,29.90,East,90,4.0,6.0,66,0.00,,,0.05,meteohub,2013-02-08 00:30:00,
2013-02-07 19:35:00,31.8,22.1,29.90,NE,45,3.0,5.0,67,0.00,,,0.05,meteohub,2013-02-08 00:35:00,
2013-02-07 19:40:00,31.6,21.9,29.91,SE,135,4.0,4.0,67,0.00,,,0.05,meteohub,2013-02-08 00:40:00,
2013-02-07 19:45:00,31.6,21.9,29.91,NE,45,5.0,8.0,67,0.00,,,0.05,meteohub,2013-02-08 00:45:00,
2013-02-07 19:50:00,31.6,21.6,29.90,East,90,3.0,7.0,66,0.00,,,0.05,meteohub,2013-02-08 00:50:00,
2013-02-07 19:55:00,31.6,21.6,29.91,East,90,3.0,7.0,66,0.00,,,0.05,meteohub,2013-02-08 00:55:00,
2013-02-07 20:00:00,31.5,21.4,29.91,NE,45,4.0,7.0,66,0.00,,,0.05,meteohub,2013-02-08 01:00:00,
2013-02-07 20:05:00,31.5,21.4,29.91,East,90,3.0,4.0,66,0.00,,,0.05,meteohub,2013-02-08 01:05:00,
2013-02-07 20:11:00,31.5,21.7,29.90,East,90,4.0,4.0,67,0.00,,,0.05,meteohub,2013-02-08 01:11:00,
2013-02-07 20:16:00,31.5,21.7,29.89,East,90,4.0,4.0,67,0.00,,,0.05,meteohub,2013-02-08 01:16:00,
2013-02-07 20:21:00,31.5,21.7,29.89,NE,45,2.0,4.0,67,0.00,,,0.05,meteohub,2013-02-08 01:21:00,
2013-02-07 20:26:00,31.5,21.7,29.89,NW,315,2.0,4.0,67,0.00,,,0.05,meteohub,2013-02-08 01:26:00,
2013-02-07 20:31:00,31.5,21.7,29.89,South,180,2.0,4.0,67,0.00,,,0.05,meteohub,2013-02-08 01:31:00,
2013-02-07 20:36:00,31.3,21.6,29.89,West,270,3.0,4.0,67,0.00,,,0.05,meteohub,2013-02-08 01:36:00,
2013-02-07 20:41:00,31.3,21.2,29.88,East,90,5.0,5.0,66,0.00,,,0.05,meteohub,2013-02-08 01:41:00,
2013-02-07 20:47:00,31.1,21.0,29.89,NE,45,3.0,5.0,66,0.00,,,0.05,meteohub,2013-02-08 01:47:00,
2013-02-07 20:52:00,31.1,21.0,29.88,East,90,3.0,6.0,66,0.00,,,0.05,meteohub,2013-02-08 01:52:00,
2013-02-07 20:57:00,31.1,21.0,29.89,North,0,3.0,6.0,66,0.00,,,0.05,meteohub,2013-02-08 01:57:00,
2013-02-07 21:02:00,31.1,21.0,29.89,East,90,3.0,4.0,66,0.00,,,0.05,meteohub,2013-02-08 02:02:00,
2013-02-07 21:07:00,31.1,21.0,29.88,East,90,3.0,3.0,66,0.00,,,0.05,meteohub,2013-02-08 02:07:00,
2013-02-07 21:12:00,31.1,20.7,29.89,ENE,68,3.0,3.0,65,0.00,,,0.05,meteohub,2013-02-08 02:12:00,
2013-02-07 21:17:00,31.1,20.7,29.88,ENE,68,4.0,4.0,65,0.00,,,0.05,meteohub,2013-02-08 02:17:00,
2013-02-07 21:22:00,31.1,20.7,29.88,NE,45,2.0,4.0,65,0.00,,,0.05,meteohub,2013-02-08 02:22:00,
2013-02-07 21:27:00,31.1,20.7,29.87,East,90,4.0,4.0,65,0.00,,,0.05,meteohub,2013-02-08 02:27:00,
2013-02-07 21:32:00,31.1,20.7,29.87,East,90,4.0,6.0,65,0.00,,,0.05,meteohub,2013-02-08 02:32:00,
2013-02-07 21:37:00,31.1,20.7,29.86,East,90,2.0,6.0,65,0.00,,,0.05,meteohub,2013-02-08 02:37:00,
2013-02-07 21:42:00,31.1,20.7,29.86,East,90,2.0,6.0,65,0.00,,,0.05,meteohub,2013-02-08 02:42:00,
2013-02-07 21:47:00,31.1,20.7,29.86,East,90,4.0,4.0,65,0.00,,,0.05,meteohub,2013-02-08 02:47:00,
2013-02-07 21:53:00,31.1,20.7,29.85,East,90,2.0,4.0,65,0.00,,,0.05,meteohub,2013-02-08 02:53:00,
2013-02-07 21:58:00,31.1,20.7,29.85,East,90,2.0,4.0,65,0.00,,,0.05,meteohub,2013-02-08 02:58:00,
2013-02-07 22:03:00,31.1,20.7,29.86,East,90,3.0,4.0,65,0.00,,,0.05,meteohub,2013-02-08 03:03:00,
2013-02-07 22:08:00,31.1,20.7,29.86,ESE,113,3.0,4.0,65,0.00,,,0.05,meteohub,2013-02-08 03:08:00,
2013-02-07 22:13:00,31.1,20.7,29.87,NE,45,2.0,4.0,65,0.00,,,0.05,meteohub,2013-02-08 03:13:00,
2013-02-07 22:19:00,31.1,20.7,29.87,East,90,2.0,4.0,65,0.00,,,0.05,meteohub,2013-02-08 03:19:00,
2013-02-07 22:24:00,31.1,20.7,29.87,East,90,4.0,4.0,65,0.00,,,0.05,meteohub,2013-02-08 03:24:00,
2013-02-07 22:29:00,31.1,20.7,29.87,NE,45,4.0,4.0,65,0.00,,,0.05,meteohub,2013-02-08 03:29:00,
2013-02-07 22:34:00,31.1,20.7,29.87,East,90,2.0,4.0,65,0.00,,,0.05,meteohub,2013-02-08 03:34:00,
2013-02-07 22:39:00,31.1,20.7,29.87,East,90,4.0,4.0,65,0.00,,,0.05,meteohub,2013-02-08 03:39:00,
2013-02-07 22:44:00,31.1,20.7,29.86,NE,45,4.0,4.0,65,0.00,,,0.05,meteohub,2013-02-08 03:44:00,
2013-02-07 22:49:00,30.7,20.7,29.86,East,90,3.0,4.0,66,0.00,,,0.05,meteohub,2013-02-08 03:49:00,
2013-02-07 22:55:00,30.2,20.5,29.86,East,90,2.0,4.0,67,0.00,,,0.05,meteohub,2013-02-08 03:55:00,
2013-02-07 23:00:00,29.8,20.8,29.85,East,90,2.0,5.0,69,0.00,,,0.05,meteohub,2013-02-08 04:00:00,
2013-02-07 23:05:00,36.0,19.6,29.86,South,180,4.0,5.0,51,0.00,,,0.05,meteohub,2013-02-08 04:05:00,
2013-02-07 23:10:00,29.5,21.9,29.86,NE,45,2.0,4.0,73,1.44,,,0.05,meteohub,2013-02-08 04:10:00,
2013-02-07 23:15:00,29.3,22.3,29.85,ENE,68,1.0,4.0,75,1.44,,,1.49,meteohub,2013-02-08 04:15:00,
2013-02-07 23:20:00,29.3,22.3,29.85,East,90,2.0,2.0,75,1.44,,,1.49,meteohub,2013-02-08 04:20:00,
2013-02-07 23:25:00,29.1,22.5,29.84,East,90,0.0,2.0,76,1.44,,,1.49,meteohub,2013-02-08 04:25:00,
2013-02-07 23:30:00,29.1,22.5,29.83,East,90,3.0,3.0,76,1.44,,,1.49,meteohub,2013-02-08 04:30:00,
2013-02-07 23:36:00,28.9,22.6,29.83,East,90,3.0,4.0,77,1.44,,,1.49,meteohub,2013-02-08 04:36:00,
2013-02-07 23:41:00,28.9,23.0,29.82,NE,45,3.0,4.0,78,1.44,,,1.49,meteohub,2013-02-08 04:41:00,
2013-02-07 23:46:00,28.9,23.0,29.82,East,90,3.0,4.0,78,1.44,,,1.49,meteohub,2013-02-08 04:46:00,
2013-02-07 23:51:00,28.9,23.2,29.81,NE,45,2.0,4.0,79,1.44,,,1.49,meteohub,2013-02-08 04:51:00,
2013-02-07 23:56:00,28.8,23.0,29.81,SE,135,2.0,4.0,79,1.44,,,1.49,meteohub,2013-02-08 04:56:00,